Torna al catalogo

BREEZE-M DEB

AttivoHEO
NORAD 34243·DEBRIS·🇷🇺 Russia

Lanciato Feb 28, 2006 da Baikonur Cosmodrome

Loading…

Prossimi Passaggi (prossime 24 ore)

TLE

AggiornatoSource: Space-Track

Epoca: Sep 11, 2026, 16:29 UTC

1 34243U 06006BJ  26254.68710633  .00003197  00000-0  34392-2 0  9994
2 34243  51.6488  40.9160 5024513 124.0359 294.2582  5.39615385 63044

Traccia BREEZE-M DEB in tempo reale con AllMySat

Download on the App Store